FW7196 Weather Reports


time (UTC)temp
C
wind
direction
speed
KPH
gust
KPH
rain 1hr
cm
rain 24hr
cm
rain mn
cm
humidity
%
barometer
mb
20260507094537 3 0 0.0 0.0 0.00 2.03 0.00 96 1007.5
20260507093648 3 336 0.0 0.0 0.00 1.96 0.00 96 1007.5
20260507093037 3 0 0.0 0.0 0.00 2.03 0.00 96 1007.5
20260507091539 3 0 0.0 0.0 0.00 2.03 0.00 96 1007.7
20260507090044 3 0 0.0 0.0 0.00 2.03 0.00 96 1007.8
20260507084548 3 0 0.0 0.0 0.00 2.03 0.00 96 1007.6
20260507083035 3 0 0.0 0.0 0.00 2.03 0.00 96 1007.6
20260507081534 4 0 0.0 0.0 0.00 2.03 0.00 95 1007.6
20260507080041 4 0 0.0 0.0 0.00 2.03 0.00 96 1007.5
20260507074538 5 0 0.0 0.0 0.00 2.03 0.00 95 1007.7
20260507073036 5 0 0.0 0.0 0.00 2.03 0.00 96 1007.4
20260507071537 5 0 0.0 0.0 0.00 2.03 0.00 96 1007.3
20260507070041 5 0 0.0 0.0 0.00 2.03 0.00 96 1007.2
20260507064558 5 0 0.0 0.0 0.00 2.03 0.00 96 1006.8
20260507063037 5 0 0.0 1.6 0.00 2.03 0.00 96 1007.4
20260507061536 5 0 0.0 0.0 0.00 2.03 0.00 96 1007.3
20260507060041 6 0 0.0 0.0 0.00 2.03 0.00 95 1007.5
20260507054536 6 0 0.0 0.0 0.00 2.03 0.00 96 1007.6
20260507053041 6 0 0.0 0.0 0.00 2.03 0.00 96 1007.9
20260507051545 6 0 0.0 0.0 0.00 2.03 0.00 96 1007.6
20260507050044 6 0 0.0 0.0 0.00 2.03 0.00 95 1007.9
20260507044535 6 0 0.0 0.0 0.00 2.03 0.00 95 1007.3
20260507043035 6 0 0.0 0.0 0.00 2.03 0.00 95 1007.2
20260507041537 6 0 0.0 0.0 0.00 2.03 0.00 95 1007.4
20260507040038 6 0 0.0 0.0 0.00 2.03 0.00 96 1007.6
20260507034538 6 0 0.0 1.6 0.03 2.03 2.03 96 1007.1
20260507033035 6 0 0.0 0.0 0.05 2.03 2.03 95 1007.5
20260507031535 6 0 0.0 0.0 0.05 2.03 2.03 95 1007.5
20260507030037 6 0 0.0 3.2 0.10 2.03 2.03 95 1007.5
20260507024535 6 0 0.0 3.2 0.10 2.01 2.01 95 1007.6
20260507023042 6 353 1.6 8.0 0.10 1.98 1.98 95 1007.9
20260507021541 7 343 0.0 3.2 0.15 1.98 1.98 95 1007.8
20260507020036 7 0 0.0 3.2 0.15 1.93 1.93 95 1007.8
20260507014545 7 0 0.0 3.2 0.18 1.91 1.91 95 1007.8
20260507013036 7 0 0.0 0.0 0.20 1.88 1.88 95 1007.5
20260507011539 7 0 0.0 3.2 0.18 1.83 1.83 95 1007.4
20260507010051 7 0 0.0 6.4 0.13 1.78 1.78 95 1007.2
20260507004537 8 0 0.0 3.2 0.08 1.73 1.73 95 1006.9
20260507003035 8 0 0.0 3.2 0.05 1.68 1.68 95 1006.8
20260507001537 8 0 0.0 4.8 0.03 1.65 1.65 94 1006.5
20260507000036 9 0 0.0 1.6 0.08 1.65 1.65 95 1006.0
20260506234534 9 0 0.0 0.0 0.15 1.65 1.65 95 1005.8
20260506233037 9 0 0.0 0.0 0.13 1.63 1.63 94 1005.5
20260506231538 10 0 0.0 0.0 0.13 1.63 1.63 94 1005.4
20260506230052 10 0 0.0 3.2 0.08 1.57 1.57 93 1005.2
20260506224539 10 0 0.0 6.4 0.00 1.47 1.47 93 1004.9
20260506223035 12 0 0.0 6.4 0.03 1.47 1.47 92 1004.5
20260506221541 14 0 0.0 6.4 0.30 1.47 1.47 95 1004.1
20260506220043 14 102 0.0 4.8 0.58 1.47 1.47 95 1004.1
20260506214538 14 122 0.0 8.0 0.71 1.65 1.47 95 1003.9
20260506213039 14 0 0.0 8.0 0.71 1.60 1.45 95 1003.8
20260506211536 14 0 1.6 9.7 0.46 1.32 1.17 95 1003.9
20260506210042 14 251 3.2 9.7 0.23 1.07 0.91 95 1003.7
20260506204538 15 0 1.6 11.3 0.10 1.04 0.79 95 1003.8
20260506203036 15 141 1.6 11.3 0.08 0.99 0.74 95 1003.9
20260506201542 15 135 0.0 9.7 0.08 0.97 0.71 95 1004.0
20260506200037 15 0 0.0 8.0 0.08 0.94 0.69 95 1004.1
20260506194535 15 141 1.6 14.5 0.10 0.94 0.69 95 1004.0
20260506193035 15 152 0.0 8.0 0.13 0.91 0.66 95 1004.3
20260506191535 14 130 0.0 9.7 0.13 0.89 0.64 95 1004.6
20260506190036 14 155 1.6 6.4 0.15 0.86 0.61 95 1004.8
20260506184538 14 0 0.0 4.8 0.20 0.84 0.58 95 1004.9
20260506183039 14 0 0.0 11.3 0.20 0.79 0.53 95 1004.9
20260506181538 14 138 0.0 12.9 0.25 0.76 0.51 94 1004.9
20260506180040 14 0 1.6 9.7 0.28 0.71 0.46 94 1005.2
20260506174537 14 160 1.6 9.7 0.25 0.64 0.38 94 1005.5
20260506173041 15 0 1.6 9.7 0.25 0.58 0.33 93 1005.4
20260506171550 15 0 0.0 0.0 0.18 0.48 0.23 94 1005.9
20260506170038 15 0 0.0 3.2 0.15 0.43 0.18 93 1005.8
20260506164535 15 0 0.0 3.2 0.10 0.38 0.13 93 1005.9
20260506163111 15 0 0.0 0.0 0.08 0.33 0.08 93 1006.2
20260506161537 15 0 0.0 3.2 0.05 0.30 0.05 92 1006.4
20260506160045 15 0 0.0 3.2 0.03 0.28 0.03 91 1006.5
20260506154539 15 0 0.0 3.2 0.03 0.28 0.03 90 1006.8
20260506153035 15 0 0.0 6.4 0.00 0.25 0.00 87 1007.3
20260506151540 15 0 0.0 9.7 0.00 0.25 0.00 86 1007.6
20260506150035 15 104 1.6 11.3 0.00 0.25 0.00 84 1007.7
20260506144553 15 0 1.6 9.7 0.00 0.25 0.00 83 1007.3
20260506143852 15 171 0.0 4.8 0.00 0.23 0.00 83 1007.3
20260506143036 15 60 0.0 6.4 0.00 0.25 0.00 83 1007.2
20260506142105 15 103 0.0 1.6 0.00 0.23 0.00 84 1007.4
20260506141552 15 129 0.0 3.2 0.00 0.23 0.00 84 1007.4
20260506141537 15 89 0.0 6.4 0.00 0.25 0.00 85 1007.4
20260506141059 15 87 0.0 0.0 0.00 0.23 0.00 85 1007.4
20260506140545 15 99 1.6 4.8 0.00 0.23 0.00 85 1007.4
20260506140038 15 133 1.6 6.4 0.00 0.23 0.00 85 1007.3
20260506135533 15 90 1.6 6.4 0.00 0.23 0.00 85 1007.4
20260506135021 15 194 0.0 6.4 0.00 0.23 0.00 86 1007.3
20260506134535 14 99 0.0 8.0 0.00 0.25 0.00 86 1007.3
20260506134513 14 256 0.0 6.4 0.00 0.23 0.00 86 1007.3
20260506134017 14 256 0.0 1.6 0.00 0.23 0.00 86 1007.3
20260506133524 14 102 1.6 9.7 0.00 0.23 0.00 86 1007.2
20260506133036 14 65 1.6 11.3 0.00 0.25 0.00 86 1007.3
20260506133009 14 80 0.0 9.7 0.00 0.23 0.00 86 1007.3
20260506132507 14 53 0.0 9.7 0.00 0.23 0.00 86 1007.2
20260506131948 14 100 0.0 0.0 0.00 0.23 0.00 87 1007.5
20260506131543 13 0 0.0 9.7 0.00 0.25 0.00 86 1007.7
20260506131438 14 89 1.6 6.4 0.00 0.23 0.00 86 1007.7
20260506130938 14 126 1.6 11.3 0.00 0.23 0.00 86 1007.8
20260506130037 13 132 0.0 16.1 0.00 0.25 0.00 87 1008.0
20260506125752 14 106 1.6 11.3 0.00 0.23 0.00 86 1007.9
20260506125242 13 114 0.0 6.4 0.00 0.23 0.00 87 1008.0
20260506124537 13 249 1.6 8.0 0.00 0.25 0.00 87 1008.1
20260506124101 13 194 0.0 1.6 0.00 0.23 0.00 87 1007.8
20260506123543 13 68 0.0 3.2 0.00 0.23 0.00 87 1007.5
20260506123051 13 54 0.0 0.0 0.00 0.23 0.00 87 1007.4
20260506123036 13 0 1.6 9.7 0.00 0.25 0.00 87 1007.4
20260506122554 13 47 0.0 4.8 0.00 0.23 0.00 87 1007.9
20260506122036 13 51 0.0 0.0 0.00 0.23 0.00 87 1007.7
20260506121534 13 136 1.6 11.3 0.00 0.25 0.00 87 1007.6
20260506120912 13 113 1.6 4.8 0.00 0.23 0.00 87 1007.6
20260506120412 13 90 1.6 12.9 0.00 0.23 0.00 87 1007.7
20260506120035 13 0 1.6 11.3 0.00 0.25 0.00 88 1007.7
20260506114541 13 0 0.0 11.3 0.00 0.25 0.00 87 1007.9
20260506113035 12 50 1.6 9.7 0.00 0.25 0.00 90 1008.0
20260506111536 12 0 0.0 3.2 0.00 0.25 0.00 92 1007.9
20260506110039 11 0 0.0 0.0 0.00 0.25 0.00 92 1008.1
20260506104540 11 0 0.0 0.0 0.00 0.25 0.00 92 1008.0
20260506103039 11 0 0.0 0.0 0.00 0.25 0.00 92 1007.9
20260506101537 11 0 0.0 0.0 0.00 0.25 0.00 92 1008.0
20260506100039 11 0 0.0 0.0 0.00 0.25 0.00 91 1008.0